Miscellaneous Local Product
Issued by NWS North Platte, NE

Home | Current Version | Previous Version | Text Only | Print | Product List | Glossary On
Versions: 1 2 3 4 5 6 7 8 9 10 11 12 13 14 15 16 17 18 19 20 21 22 23 24 25 26 27 28 29 30 31 32 33 34 35 36 37 38 39 40 41 42 43 44 45 46 47 48 49 50
637
AXUS43 KLBF 210810
MISLBF


WESTERN AND NORTH CENTRAL NEBRASKA HOURLY WEATHER ROUNDUP
NATIONAL WEATHER SERVICE NORTH PLATTE NE
200 AM CST SAT JAN 21 2017

NOTE: "FAIR" INDICATES FEW OR NO CLOUDS BELOW 12,000 FEET WITH NO
SIGNIFICANT WEATHER AND/OR OBSTRUCTIONS TO VISIBILITY.

NOTE: STATIONS NOT REPORTING VARIABLES SUCH AS SKY/WEATHER OR
PRESSURE ARE PROVIDED BY RAWS AND APRS NETWORKS AND ARE NOT UNDER
NATIONAL WEATHER SERVICE QUALITY CONTROL.

...OBSERVATIONS IN AND NEAR THE EASTERN PANHANDLE OF NEBRASKA...

CITY           SKY/WX    TMP DP  RH WIND       PRES   REMARKS
PINE RIDGE     CLOUDY    35  34  96 W7        29.36F WCI  29
CHADRON        CLOUDY    34  31  88 W9        29.38S WCI  27
ALLIANCE       CLOUDY    27  25  92 W8        29.37F WCI  19
SIDNEY         CLEAR     28  21  75 W9        29.40S WCI  19
CRESCENT LAKE    N/A     30  30 100 NW6         N/A  WCI  24
$$

...OBSERVATIONS IN NORTHERN NEBRASKA AND FAR SOUTHERN SOUTH DAKOTA...

CITY           SKY/WX    TMP DP  RH WIND       PRES   REMARKS
WINNER         CLOUDY    28  25  88 NE5       29.33F WCI  23
VALENTINE      PTCLDY    31  27  85 W7        29.33F WCI  24
THEDFORD       MOCLDY    35  34  95 SW8       29.36S WCI  29
AINSWORTH      CLOUDY    32  31  95 W8        29.34R WCI  25
O`NEILL        CLOUDY    34  34 100 W5        29.34F WCI  30
ORD            CLOUDY    35  33  92 CALM      29.35S
BROKEN BOW     CLOUDY    36  33  89 W8        29.36S WCI  30
VALENTINE NWR    N/A     36  32  86 W6          N/A  WCI  31
BUTTE            N/A     33  31  94 CALM        N/A
HALSEY           N/A     36  34  94 W6          N/A  WCI  31
SARGENT          N/A     34  26  71 CALM        N/A
CHAMBERS         N/A     34  33  98 CALM        N/A
EWING            N/A     36  35  96 W3          N/A
$$

...OBSERVATIONS IN SOUTHWEST NEBRASKA AND FAR NORTHEAST COLORADO...

CITY           SKY/WX    TMP DP  RH WIND       PRES   REMARKS
WRAY           FAIR      27  27 100 CALM      29.43
HOLYOKE        FAIR      32  28  86 SW6       29.42F WCI  26
IMPERIAL       CLEAR     32  30  92 W9        29.42S WCI  24
OGALLALA       CLEAR     32  31  96 W6        29.40S WCI  26
NORTH PLATTE   PTCLDY    31  30  96 CALM      29.39F
MCCOOK         CLEAR     32  31  96 SW7       29.42F WCI  26
LEXINGTON      CLOUDY    34  32  92 W5        29.39S WCI  30
STAPLETON        N/A     32  31  96 CALM        N/A
GOTHENBURG       N/A     35  32  88 CALM        N/A
CALLAWAY         N/A     35  33  93 NW8         N/A  WCI  28
$$

...OBSERVATIONS IN CENTRAL LINCOLN COUNTY AREA...

CITY           SKY/WX    TMP DP  RH WIND       PRES   REMARKS
N.P. AIRPORT   PTCLDY    31  30  96 CALM      29.39F
N.P. DOWNTOWN    N/A     34  33  95 CALM        N/A
N.P. SOUTHEAST   N/A     34  31  90 CALM        N/A
N.P. HILLCREST   N/A     34  33  95 W3          N/A
$$

...SOME OBSERVATIONS FROM AROUND THE REGION...

CITY           SKY/WX    TMP DP  RH WIND       PRES   REMARKS
LARAMIE        CLOUDY    12   7  80 SE7       29.39F WCI   1
CHEYENNE       CLEAR     24  16  71 SW9       29.40F WCI  14
DENVER         CLOUDY    25  20  81 S5        29.39F WCI  19
AKRON          CLEAR     27  19  72 W6        29.42F WCI  20
SCOTTSBLUFF    CLEAR     28  22  78 NW5       29.40S WCI  23
RAPID CITY     CLOUDY    34  31  88 N15       29.34F WCI  24
BISMARCK       CLOUDY    31  30  96 NW6       29.32S FOG     WCI  25
PIERRE         CLOUDY    26  24  92 NW9       29.31F WCI  17
SIOUX FALLS    CLOUDY    36  36 100 SE6       29.36F FOG     WCI  31
OMAHA          CLOUDY    40  37  89 S3        29.39S FOG
GRAND ISLAND   PTCLDY    34  34 100 W8        29.38R WCI  27
KANSAS CITY    CLOUDY    38  36  92 S10       29.41S WCI  31
WICHITA        CLEAR     34  33  96 W8        29.50R WCI  27
OKLAHOMA CITY  PTCLDY    46  33  60 SW6       29.55F
DALLAS         CLEAR     52  47  83 S8        29.59F
AMARILLO       PTCLDY    42  31  64 SW10      29.54F
DODGE CITY     CLEAR     32  30  92 SW9       29.50R WCI  24
HAYS           CLEAR     33  31  92 W10       29.45F WCI  25
GOODLAND       CLEAR     28  26  92 W5        29.43F WCI  23
$$




USA.gov is the U.S. government's official web portal to all federal, state and local government web resources and services.